Regional Weather Roundup
Issued by NWS

Home | Current Version | Previous Version | Graphics & Text | Print | Product List | Glossary On
Versions: 1 2 3 4 5 6 7 8 9 10 11 12 13 14 15 16 17 18 19 20 21 22 23 24 25 26 27 28 29 30 31 32 33 34 35 36 37 38 39 40 41 42 43 44 45 46 47 48 49 50
000
ASUS43 KIND 150959
RWRIN

WEATHER ROUNDUP FOR INDIANA
NATIONAL WEATHER SERVICE INDIANAPOLIS IN
600 AM EDT TUE APR 15 2014

NOTE: "FAIR" INDICATES FEW OR NO CLOUDS BELOW 12,000 FEET WITH NO
SIGNIFICANT WEATHER AND/OR OBSTRUCTIONS TO VISIBILITY.

* - STATION DOES NOT REPORT WEATHER SUCH AS PRECIPITATION OR FOG.

+ - STATION NOT QUALITY CONTROLLED BY THE NATIONAL WEATHER SERVICE.
    USE DATA WITH CAUTION...ESPECIALLY DEWPOINT AND RELATIVE
    HUMIDITY OBSERVATIONS.

INZ001>003-010>013-019-020-151100-
NORTHWEST INDIANA

CITY           SKY/WX    TMP DP  RH WIND       PRES   REMARKS
GARY /AIRPORT/ LGT SNOW  30  25  80 W14       30.01R WCI  20
VALPARAISO     LGT SNOW  27  24  89 NW7       29.99R FOG     WCI  19

$$

LMZ046-743>745-151100-
SOUTHERN LAKE MICHIGAN

STATION/POSITION TIME  TEMP WIND        PRES
                       AIR  DIR/SP/G
                 (UTC) (F)  (DEG/KT/KT) (MB)
MICHIGAN CITY    0900   29  340/ 21/ 27   N/A

$$

INZ004-005-014>016-021>024-151100-
NORTH CENTRAL INDIANA

CITY           SKY/WX    TMP DP  RH WIND       PRES   REMARKS
GOSHEN         CLOUDY    27  19  72 N13       29.95R WCI  16
PERU/GRISSOM   MIX PCPN  28  25  86 N15       29.94R WCI  17
SOUTH BEND     CLOUDY    28  19  69 N14       29.96R WCI  17

$$

INZ006>009-017-018-025>027-151100-
NORTHEAST INDIANA

CITY           SKY/WX    TMP DP  RH WIND       PRES   REMARKS
ANGOLA *+      CLOUDY    25  19  80 N12       29.90R WCI  14
FORT WAYNE     MOCLDY    28  22  78 N16       29.91R WCI  16

$$

INZ028-029-035-036-043>045-051>053-151100-
WEST CENTRAL INDIANA

CITY           SKY/WX    TMP DP  RH WIND       PRES   REMARKS
GREENCASTLE +  CLOUDY    32  27  80 NW9       29.97R WCI  24
LAFAYETTE      FLURRIES  30  27  88 NW13      29.98R WCI  20
TERRE HAUTE    PTCLDY    32  26  78 NW9       30.00R WCI  24

$$

INZ030>032-037>040-046>048-054>057-064-065-151100-
CENTRAL INDIANA

CITY           SKY/WX    TMP DP  RH WIND       PRES   REMARKS
INDIANAPOLIS   FLURRIES  30  27  88 NW15      29.93R WCI  19
-EAGLE CREEK   CLOUDY    31  26  82 N14       29.93R WCI  21
KOKOMO *+      CLOUDY    30  21  69 N15G22    29.94S WCI  19
MT COMFORT *+  CLOUDY    32  28  86 N13       29.93R WCI  22
SHELBYVILLE    CLOUDY    33  25  72 N12       29.92R WCI  24

$$

INZ033-034-041-042-049-050-058-059-151100-
EAST CENTRAL INDIANA

CITY           SKY/WX    TMP DP  RH WIND       PRES   REMARKS
MUNCIE         CLOUDY    29  23  78 NW16      29.90F WCI  17

$$

INZ060-061-067>069-081>083-085>088-151100-
SOUTHWEST INDIANA

CITY           SKY/WX    TMP DP  RH WIND       PRES   REMARKS
EVANSVILLE     CLOUDY    36  28  73 NW8G16    30.02R
HUNTINGBURG *+ CLOUDY    36  27  69 N12G21    30.00R

$$

INZ062-063-066-070>080-084-089>092-151100-
SOUTH CENTRAL AND SOUTHEAST INDIANA

CITY           SKY/WX    TMP DP  RH WIND       PRES   REMARKS
BLOOMINGTON    CLOUDY    33  28  81 NW8       29.95R WCI  26

$$




USA.gov is the U.S. government's official web portal to all federal, state and local government web resources and services.